Tracking 35237 objects as of 5-Sep-2026
HD Live streaming from Space Station
objects crossing your sky now

COSMOS 1813 DEB


COSMOS 1813 DEB is no longer on orbit


NORAD ID: 17496
Int'l Code: 1987-004AL
Launch date: January 15, 1987
Source: Commonwealth of Independent States (former USSR) (CIS)
Launch site: PLESETSK MISSILE AND SPACE COMPLEX (PKMTR)
Decay date: 1987-04-14

Note: This is SATELLITE DEBRIS
Your satellite tracking list
Your tracking list is empty




NASA's NSSDC Master Catalog

Two Line Element Set (TLE):
1 17496U 87004 AL 87104.29468135  .07275597 +22679-5 +41763-2 0  9990
2 17496 072.7779 075.7155 0018468 295.3382 066.1866 16.18388475011553
Source of the keplerian elements: AFSPC